Weather History for Spirit of St Louis, MO

Change the Weather History Date:

Monday, November 12, 2012

  Actual Average Record
Temperature  
Mean Temperature 37 °F -  
Max Temperature 46 °F 54 °F 73 °F (1999)
Min Temperature 27 °F 33 °F 19 °F (2013)
Degree Days  
Heating Degree Days 28    
Moisture  
Dew Point 23 °F    
Average Humidity 63    
Maximum Humidity 86    
Minimum Humidity 37    
Precipitation  
Precipitation 0.00 in - - ()
Sea Level Pressure  
Sea Level Pressure 30.32 in    
Wind  
Wind Speed 12 mph (West)    
Max Wind Speed 20 mph    
Max Gust Speed 30 mph    
Visibility 10 miles    
Events Snow    
Averages and records for this station are not official NWS values.
T = Trace of Precipitation, MM = Missing Value Source: NWS Daily Summary

Daily Weather History Graph

Daily Weather History Graph

Search for Another Location

Airport:

Trip Planner

Search our weather history database for the weather conditions in past years. The results will help you decide how hot, cold, wet, or windy it might be!

Date:

Astronomy

Nov. 12, 2012 Rise Set
Actual Time 6:42 AM CST 4:51 PM CST
Civil Twilight 6:13 AM CST 5:19 PM CST
Nautical Twilight 5:41 AM CST 5:51 PM CST
Astronomical Twilight 5:10 AM CST 6:22 PM CST
Moon 5:08 AM CST (11/12) 3:56 PM CST (11/12)
Length of Visible Light 11h 05m
Length of Day
10h 09m
Waning Crescent, 2% of the Moon is Illuminated
Nov 12
Waning Crescent
Nov 13
New
Nov 20
First Quarter
Nov 28
Full
Dec 6
Last Quarter

Hourly Weather History & Observations

Time (CST) Temp. Windchill Dew Point Humidity Pressure Visibility Wind Dir Wind Speed Gust Speed Precip Events Conditions
12:54 AM 36.0 °F 28.0 °F 32.0 °F 86% 30.15 in 10.0 mi West 11.5 mph - 0.00 in   Overcast
1:35 AM 35.6 °F 25.2 °F 28.4 °F 75% 30.16 in 10.0 mi WNW 18.4 mph 23.0 mph N/A   Mostly Cloudy
1:54 AM 35.1 °F 25.5 °F 28.0 °F 76% 30.18 in 10.0 mi WNW 15.0 mph 20.7 mph 0.00 in Snow Light Snow
2:32 AM 33.8 °F 23.9 °F 24.8 °F 70% 30.19 in 10.0 mi WNW 15.0 mph - 0.00 in   Scattered Clouds
2:44 AM 33.8 °F 24.3 °F 24.8 °F 70% 30.18 in 10.0 mi NW 13.8 mph 26.5 mph 0.00 in   Mostly Cloudy
2:54 AM 33.1 °F 23.9 °F 25.0 °F 72% 30.19 in 10.0 mi WNW 12.7 mph 20.7 mph 0.00 in   Mostly Cloudy
3:54 AM 32.0 °F 20.8 °F 21.0 °F 64% 30.24 in 9.0 mi WNW 17.3 mph 25.3 mph 0.00 in Snow Light Snow
4:11 AM 32.0 °F 22.1 °F 21.2 °F 64% 30.23 in 10.0 mi West 13.8 mph 17.3 mph 0.00 in   Scattered Clouds
4:54 AM 30.0 °F 23.2 °F 21.0 °F 69% 30.27 in 10.0 mi West 6.9 mph - 0.00 in   Clear
5:54 AM 30.0 °F 23.2 °F 19.0 °F 64% 30.30 in 10.0 mi West 6.9 mph - N/A   Clear
6:54 AM 28.9 °F 21.1 °F 19.0 °F 67% 30.33 in 10.0 mi West 8.1 mph - N/A   Clear
7:54 AM 30.9 °F 22.8 °F 19.9 °F 64% 30.35 in 10.0 mi West 9.2 mph - N/A   Clear
8:54 AM 33.1 °F 24.9 °F 21.9 °F 64% 30.37 in 10.0 mi West 10.4 mph - N/A   Clear
9:54 AM 36.0 °F 28.0 °F 21.9 °F 57% 30.38 in 10.0 mi West 11.5 mph 18.4 mph N/A   Clear
10:54 AM 39.0 °F 31.4 °F 23.0 °F 53% 30.37 in 10.0 mi WSW 12.7 mph - N/A   Clear
11:54 AM 41.0 °F 33.1 °F 23.0 °F 49% 30.35 in 10.0 mi WSW 15.0 mph - N/A   Clear
12:54 PM 43.0 °F 36.0 °F 21.0 °F 42% 30.33 in 10.0 mi WSW 13.8 mph - N/A   Clear
1:54 PM 45.0 °F 37.4 °F 21.0 °F 39% 30.32 in 10.0 mi West 18.4 mph 29.9 mph N/A   Clear
2:54 PM 46.0 °F 40.6 °F 21.9 °F 39% 30.32 in 10.0 mi West 11.5 mph 21.9 mph N/A   Partly Cloudy
3:54 PM 45.0 °F 37.1 °F 19.9 °F 37% 30.34 in 10.0 mi West 19.6 mph 26.5 mph N/A   Clear
4:54 PM 41.0 °F 35.2 °F 21.9 °F 47% 30.37 in 10.0 mi West 9.2 mph - N/A   Clear
5:54 PM 37.0 °F 34.5 °F 23.0 °F 57% 30.40 in 10.0 mi SW 3.5 mph - N/A   Clear
6:54 PM 36.0 °F 33.3 °F 23.0 °F 59% 30.42 in 10.0 mi SW 3.5 mph - N/A   Clear
7:54 PM 34.0 °F 31.0 °F 23.0 °F 64% 30.44 in 10.0 mi WSW 3.5 mph - N/A   Clear
8:54 PM 32.0 °F - 25.0 °F 75% 30.45 in 10.0 mi Calm Calm - N/A   Clear
9:54 PM 30.0 °F - 24.1 °F 79% 30.46 in 10.0 mi Calm Calm - N/A   Clear
10:54 PM 30.0 °F - 24.1 °F 79% 30.45 in 10.0 mi Calm Calm - N/A   Clear
11:54 PM 27.0 °F - 23.0 °F 85% 30.47 in 10.0 mi Calm Calm - N/A   Clear